BAW445 EHAM-EGLL

Flight info

Callsign BAW445
Flight time 0h 38m
Altitude 22000
Route VALKO3S IDRID L980 LOGAN LOGAN2H
Aircraft A321/M-SDE3FGHIRWY/LB1

Departure

Time 2026-04-17 12:56
Airport Amsterdam Airport Schiphol (EHAM)

Arrival

Time 2026-04-17 13:35
Airport London Heathrow Airport (EGLL)
Time Latitude Longitude Altitude Speed Heading
2026-04-17 12:32 52.30625 4.76634 -1 ft 0 kts 236°
2026-04-17 12:46 52.30630 4.76644 -1 ft 2 kts 233°
2026-04-17 12:47 52.30639 4.76666 -1 ft 2 kts 233°
2026-04-17 12:47 52.30649 4.76687 -1 ft 2 kts 231°
2026-04-17 12:47 52.30660 4.76708 -1 ft 2 kts 224°
2026-04-17 12:47 52.30673 4.76723 -1 ft 2 kts 195°
2026-04-17 12:48 52.30686 4.76721 -1 ft 1 kts 146°
2026-04-17 12:48 52.30687 4.76720 -1 ft 0 kts 147°
2026-04-17 12:51 52.30684 4.76723 -1 ft 6 kts 146°
2026-04-17 12:51 52.30649 4.76761 -1 ft 0 kts 144°
2026-04-17 12:51 52.30617 4.76810 -1 ft 17 kts 126°
2026-04-17 12:52 52.30547 4.76928 -1 ft 3 kts 149°
2026-04-17 12:52 52.30545 4.76929 -1 ft 4 kts 148°
2026-04-17 12:52 52.30496 4.76981 -1 ft 0 kts 146°
2026-04-17 12:52 52.30455 4.77022 -1 ft 22 kts 145°
2026-04-17 12:53 52.30425 4.77094 -1 ft 9 kts 97°
2026-04-17 12:53 52.30427 4.77199 -1 ft 2 kts 112°
2026-04-17 12:53 52.30393 4.77256 -2 ft 0 kts 122°
2026-04-17 12:54 52.30392 4.77258 -2 ft 6 kts 124°
2026-04-17 12:54 52.30342 4.77376 -3 ft 11 kts 140°
2026-04-17 12:55 52.30289 4.77310 -3 ft 8 kts 236°
2026-04-17 12:55 52.30285 4.77300 -4 ft 0 kts 238°
2026-04-17 12:55 52.30266 4.77253 -4 ft 28 kts 236°
2026-04-17 12:56 52.30006 4.76583 -2 ft 110 kts 238°
2026-04-17 12:56 52.29464 4.75172 103 ft 177 kts 237°
2026-04-17 12:56 52.28854 4.73622 1034 ft 178 kts 238°
2026-04-17 12:56 52.28183 4.71877 2394 ft 166 kts 238°
2026-04-17 12:57 52.27554 4.70398 3657 ft 152 kts 232°
2026-04-17 12:57 52.26892 4.69106 4625 ft 145 kts 229°
2026-04-17 12:57 52.26204 4.67923 5389 ft 143 kts 226°
2026-04-17 12:57 52.25493 4.66794 6055 ft 143 kts 224°
2026-04-17 12:58 52.24767 4.65636 6620 ft 149 kts 233°
2026-04-17 12:58 52.24154 4.63992 6538 ft 202 kts 246°
2026-04-17 12:58 52.23568 4.61584 6633 ft 245 kts 251°
2026-04-17 12:58 52.23003 4.58867 7416 ft 261 kts 252°
2026-04-17 12:59 52.22414 4.55977 8285 ft 275 kts 252°
2026-04-17 12:59 52.21806 4.52986 9327 ft 280 kts 252°
2026-04-17 12:59 52.21185 4.49947 10303 ft 289 kts 251°
2026-04-17 12:59 52.20526 4.46747 11021 ft 306 kts 251°
2026-04-17 13:00 52.19829 4.43381 11753 ft 321 kts 251°
2026-04-17 13:00 52.19095 4.39860 12506 ft 335 kts 251°
2026-04-17 13:00 52.18334 4.36232 13476 ft 340 kts 251°
2026-04-17 13:00 52.17559 4.32555 14433 ft 345 kts 251°
2026-04-17 13:01 52.16781 4.28874 15342 ft 350 kts 251°
2026-04-17 13:01 52.15979 4.25096 16222 ft 355 kts 251°
2026-04-17 13:01 52.15181 4.21342 17065 ft 360 kts 251°
2026-04-17 13:01 52.14355 4.17469 17890 ft 365 kts 251°
2026-04-17 13:02 52.13515 4.13541 18684 ft 369 kts 251°
2026-04-17 13:02 52.12664 4.09567 19459 ft 374 kts 251°
2026-04-17 13:02 52.11802 4.05551 20204 ft 378 kts 251°
2026-04-17 13:02 52.10927 4.01484 20933 ft 383 kts 251°
2026-04-17 13:03 52.10033 3.97339 21367 ft 395 kts 251°
2026-04-17 13:03 52.09103 3.93034 21619 ft 412 kts 251°
2026-04-17 13:03 52.08127 3.88529 21721 ft 432 kts 251°
2026-04-17 13:03 52.07105 3.83814 21762 ft 452 kts 251°
2026-04-17 13:04 52.06035 3.78884 21780 ft 472 kts 250°
2026-04-17 13:04 52.04919 3.73755 21789 ft 491 kts 250°
2026-04-17 13:04 52.03759 3.68443 21790 ft 508 kts 250°
2026-04-17 13:04 52.02560 3.62966 21789 ft 519 kts 250°
2026-04-17 13:05 52.01345 3.57438 21788 ft 519 kts 250°
2026-04-17 13:05 51.99954 3.52041 21786 ft 519 kts 242°
2026-04-17 13:05 51.98121 3.46995 21788 ft 519 kts 238°
2026-04-17 13:05 51.96124 3.42104 21789 ft 520 kts 236°
2026-04-17 13:06 51.94056 3.37305 21790 ft 520 kts 234°
2026-04-17 13:06 51.91944 3.32555 21791 ft 520 kts 234°
2026-04-17 13:06 51.89807 3.27835 21792 ft 520 kts 233°
2026-04-17 13:06 51.87677 3.23181 21793 ft 520 kts 233°
2026-04-17 13:07 51.85754 3.18181 21788 ft 519 kts 245°
2026-04-17 13:07 51.84666 3.12632 21792 ft 519 kts 258°
2026-04-17 13:07 51.84087 3.06949 21791 ft 519 kts 262°
2026-04-17 13:07 51.83657 3.01149 21792 ft 519 kts 264°
2026-04-17 13:08 51.83293 2.95349 21793 ft 519 kts 264°
2026-04-17 13:08 51.82957 2.89537 21794 ft 519 kts 265°
2026-04-17 13:08 51.82627 2.83720 21794 ft 519 kts 265°
2026-04-17 13:08 51.82293 2.77912 21795 ft 519 kts 264°
2026-04-17 13:09 51.81946 2.72111 21795 ft 519 kts 264°
2026-04-17 13:09 51.81575 2.66305 21795 ft 519 kts 264°
2026-04-17 13:09 51.81189 2.60508 21795 ft 519 kts 264°
2026-04-17 13:09 51.80793 2.54711 21795 ft 519 kts 264°
2026-04-17 13:10 51.80383 2.48834 21795 ft 519 kts 263°
2026-04-17 13:10 51.79974 2.43040 21796 ft 519 kts 263°
2026-04-17 13:10 51.79559 2.37246 21796 ft 519 kts 263°
2026-04-17 13:10 51.79141 2.31453 21796 ft 519 kts 263°
2026-04-17 13:11 51.78738 2.25737 21796 ft 519 kts 264°
2026-04-17 13:11 51.78363 2.19941 21797 ft 519 kts 264°
2026-04-17 13:11 51.78000 2.14063 21797 ft 519 kts 264°
2026-04-17 13:11 51.77651 2.08259 21796 ft 519 kts 264°
2026-04-17 13:12 51.77304 2.02457 21797 ft 519 kts 264°
2026-04-17 13:12 51.76609 1.90859 21796 ft 519 kts 264°
2026-04-17 13:12 51.76257 1.85058 21797 ft 519 kts 264°
2026-04-17 13:13 51.75907 1.79343 21796 ft 519 kts 264°
2026-04-17 13:13 51.75548 1.73541 21796 ft 519 kts 264°
2026-04-17 13:13 51.75184 1.67748 21797 ft 519 kts 264°
2026-04-17 13:13 51.74819 1.61953 21796 ft 519 kts 264°
2026-04-17 13:14 51.74453 1.56163 21796 ft 519 kts 264°
2026-04-17 13:14 51.74083 1.50349 21773 ft 519 kts 264°
2026-04-17 13:14 51.73721 1.44717 21430 ft 482 kts 264°
2026-04-17 13:14 51.73387 1.39541 20089 ft 449 kts 264°
2026-04-17 13:15 51.73070 1.34682 18745 ft 425 kts 264°
2026-04-17 13:15 51.72766 1.30059 17473 ft 403 kts 264°
2026-04-17 13:15 51.72475 1.25685 16666 ft 376 kts 264°
2026-04-17 13:15 51.72207 1.21662 16289 ft 350 kts 264°
2026-04-17 13:16 51.71950 1.17841 16009 ft 335 kts 264°
2026-04-17 13:16 51.71698 1.14121 15888 ft 328 kts 264°
2026-04-17 13:16 51.71452 1.10500 15843 ft 327 kts 264°
2026-04-17 13:16 51.71190 1.06661 15819 ft 364 kts 264°
2026-04-17 13:17 51.70898 1.02393 15811 ft 401 kts 264°
2026-04-17 13:17 51.70578 0.97725 15809 ft 434 kts 264°
2026-04-17 13:17 51.70242 0.92835 15802 ft 452 kts 264°
2026-04-17 13:17 51.69884 0.87667 15804 ft 477 kts 263°
2026-04-17 13:18 51.69504 0.82214 15803 ft 500 kts 263°
2026-04-17 13:18 51.69105 0.76537 15800 ft 520 kts 263°
2026-04-17 13:18 51.68690 0.70668 15800 ft 531 kts 263°
2026-04-17 13:18 51.68269 0.64755 15798 ft 532 kts 263°
2026-04-17 13:19 51.67844 0.58845 15800 ft 532 kts 263°
2026-04-17 13:19 51.67389 0.53112 15714 ft 487 kts 259°
2026-04-17 13:19 51.66403 0.48494 15722 ft 393 kts 240°
2026-04-17 13:19 51.64870 0.45369 15735 ft 326 kts 220°
2026-04-17 13:20 51.63072 0.43454 14907 ft 293 kts 209°
2026-04-17 13:20 51.61326 0.42003 13855 ft 291 kts 207°
2026-04-17 13:20 51.59441 0.40368 13361 ft 315 kts 210°
2026-04-17 13:20 51.57648 0.38595 13075 ft 298 kts 213°
2026-04-17 13:21 51.55906 0.36690 12477 ft 305 kts 216°
2026-04-17 13:21 51.54212 0.34660 11675 ft 301 kts 218°
2026-04-17 13:21 51.52617 0.32613 10787 ft 286 kts 219°
2026-04-17 13:21 51.51135 0.30614 9882 ft 272 kts 221°
2026-04-17 13:22 51.49736 0.28657 9006 ft 261 kts 221°
2026-04-17 13:22 51.48405 0.26739 8124 ft 254 kts 223°
2026-04-17 13:22 51.47084 0.24793 7490 ft 272 kts 223°
2026-04-17 13:22 51.45674 0.22669 7136 ft 276 kts 224°
2026-04-17 13:23 51.44336 0.20504 6957 ft 273 kts 231°
2026-04-17 13:23 51.43273 0.17984 6870 ft 273 kts 238°
2026-04-17 13:23 51.42280 0.15389 6829 ft 274 kts 239°
2026-04-17 13:23 51.41309 0.12765 6819 ft 274 kts 239°
2026-04-17 13:24 51.40345 0.10123 6813 ft 274 kts 240°
2026-04-17 13:24 51.39352 0.07519 6807 ft 274 kts 235°
2026-04-17 13:24 51.37932 0.05494 6798 ft 275 kts 213°
2026-04-17 13:24 51.36216 0.04152 6801 ft 274 kts 203°
2026-04-17 13:25 51.34663 0.02416 6786 ft 276 kts 228°
2026-04-17 13:25 51.33811 -0.00287 6811 ft 273 kts 255°
2026-04-17 13:25 51.33485 -0.03309 6390 ft 278 kts 263°
2026-04-17 13:25 51.33440 -0.06371 5687 ft 274 kts 271°
2026-04-17 13:26 51.33516 -0.09382 5301 ft 270 kts 273°
2026-04-17 13:26 51.33613 -0.12355 4995 ft 263 kts 273°
2026-04-17 13:26 51.33705 -0.15121 4304 ft 238 kts 273°
2026-04-17 13:26 51.33809 -0.17699 3605 ft 232 kts 276°
2026-04-17 13:27 51.34280 -0.20149 3239 ft 230 kts 302°
2026-04-17 13:27 51.35461 -0.21737 3019 ft 228 kts 336°
2026-04-17 13:27 51.37020 -0.21989 2927 ft 229 kts 10°
2026-04-17 13:27 51.38414 -0.20797 2916 ft 231 kts 44°
2026-04-17 13:28 51.39181 -0.18582 2879 ft 230 kts 77°
2026-04-17 13:28 51.39105 -0.16045 2877 ft 231 kts 103°
2026-04-17 13:28 51.38691 -0.13552 2878 ft 232 kts 103°
2026-04-17 13:28 51.38796 -0.11119 2870 ft 208 kts 68°
2026-04-17 13:29 51.39691 -0.09481 2861 ft 198 kts 30°
2026-04-17 13:29 51.41028 -0.09096 2861 ft 198 kts 351°
2026-04-17 13:29 51.42299 -0.09885 2850 ft 197 kts 333°
2026-04-17 13:29 51.43514 -0.10923 2884 ft 198 kts 330°
2026-04-17 13:30 51.44703 -0.12005 2865 ft 196 kts 329°
2026-04-17 13:30 51.45789 -0.13324 2857 ft 197 kts 311°
2026-04-17 13:30 51.46394 -0.15249 2852 ft 195 kts 279°
2026-04-17 13:30 51.46503 -0.17383 2864 ft 181 kts 273°
2026-04-17 13:31 51.46543 -0.19306 2579 ft 174 kts 271°
2026-04-17 13:31 51.46544 -0.21241 2191 ft 170 kts 270°
2026-04-17 13:31 51.46564 -0.23105 2016 ft 166 kts 269°
2026-04-17 13:31 51.46537 -0.24958 1930 ft 167 kts 268°
2026-04-17 13:32 51.46516 -0.26827 1919 ft 168 kts 269°
2026-04-17 13:32 51.46513 -0.28696 1905 ft 166 kts 270°
2026-04-17 13:32 51.46515 -0.30567 1917 ft 169 kts 270°
2026-04-17 13:32 51.46543 -0.32453 1650 ft 172 kts 270°
2026-04-17 13:33 51.46528 -0.34344 1237 ft 166 kts 269°
2026-04-17 13:33 51.46507 -0.36171 984 ft 163 kts 269°
2026-04-17 13:33 51.46499 -0.37989 761 ft 165 kts 270°
2026-04-17 13:33 51.46497 -0.39781 586 ft 164 kts 270°
2026-04-17 13:34 51.46496 -0.41642 344 ft 162 kts 270°
2026-04-17 13:34 51.46494 -0.43439 142 ft 163 kts 270°
2026-04-17 13:34 51.46492 -0.45248 96 ft 164 kts 269°
2026-04-17 13:34 51.46483 -0.46943 88 ft 124 kts 270°
2026-04-17 13:35 51.46474 -0.47841 88 ft 45 kts 268°
2026-04-17 13:35 51.46468 -0.48167 91 ft 19 kts 271°
2026-04-17 13:35 51.46465 -0.48360 89 ft 16 kts 266°
2026-04-17 13:35 51.46462 -0.48606 88 ft 25 kts 273°
2026-04-17 13:36 51.46489 -0.48746 90 ft 13 kts 312°
2026-04-17 13:36 51.46598 -0.48772 88 ft 19 kts 15°
2026-04-17 13:36 51.46627 -0.48758 89 ft 0 kts 16°
2026-04-17 13:36 51.46629 -0.48758 88 ft 7 kts 14°
2026-04-17 13:37 51.46755 -0.48749 87 ft 0 kts
2026-04-17 13:38 51.46788 -0.48751 87 ft 18 kts 357°
2026-04-17 13:38 51.46867 -0.48729 90 ft 7 kts 47°
2026-04-17 13:38 51.46879 -0.48658 89 ft 5 kts 62°
2026-04-17 13:38 51.46902 -0.48649 90 ft 5 kts
2026-04-17 13:39 51.46926 -0.48650 89 ft 4 kts 360°
2026-04-17 13:39 51.46929 -0.48650 89 ft 0 kts